Temperature
20 19 19 19 19 19 19 19 19 19 19 19 19 19 19 18 18 18 18 18 18 18 18 18 18 18 18 18 18 18 18 18 18 18 18 18 18 18 17 17 17 17 17
20 20 19 19 19 19 19 19 19 19 19 19 19 19 18 18 18 18 18 18 18 18 18 18 18 18 18 18 18 18 18 18 18 17 17 17 17 17 17 17 17 17 16
20 20 19 19 19 19 19 19 19 19 19 18 18 18 18 18 18 18 18 18 18 18 18 18 18 17 17 17 17 17 17 17 17 17 17 17 17 17 17 17 16 16 16
20 20 19 19 19 19 19 19 19 19 18 18 18 18 18 18 18 18 18 18 18 18 17 17 17 17 17 17 17 17 17 17 17 17 17 17 17 17 16 16 16 16 16
20 20 19 19 19 19 18 18 18 18 18 18 18 18 18 18 18 18 18 18 17 17 17 17 17 17 17 17 16 17 17 16 16 16 16 16 16 16 16 16 16 16 16
20 20 19 19 19 18 18 18 18 18 18 18 18 18 18 17 18 17 17 17 17 17 17 17 17 17 17 17 16 16 16 16 16 16 16 16 15 15 15 15 15 15 15
19 19 19 18 18 18 18 18 18 18 18 18 18 18 18 18 18 18 17 17 17 17 17 17 17 16 17 16 16 16 16 16 16 15 15 15 15 15 15 15 15 15 15
19 19 18 18 18 18 17 18 18 18 17 17 17 17 17 17 17 17 17 17 17 17 16 16 16 16 16 16 16 16 16 16 15 15 15 15 15 15 15 15 14 14 14
18 18 18 18 18 17 17 17 17 17 17 17 17 17 17 17 17 17 17 17 17 17 16 16 16 16 16 16 16 15 15 15 15 15 15 15 15 15 15 14 14 14 13
18 18 18 17 17 17 17 17 17 17 17 17 17 17 17 17 17 17 17 16 16 16 16 16 16 16 16 15 15 15 15 15 15 15 15 15 15 14 14 14 14 14 13
17 17 17 17 17 17 17 17 17 16 16 16 16 16 16 16 16 16 16 16 16 16 15 15 15 15 15 15 15 15 15 15 14 14 14 14 14 14 14 14 14 13 13
17 17 17 16 16 16 16 16 16 16 16 16 16 16 16 16 16 16 16 16 15 15 15 15 15 15 15 15 15 15 15 14 14 14 14 14 14 14 14 14 13 13 13
16 16 16 16 16 16 16 16 16 16 15 15 15 15 15 15 15 15 16 15 15 15 14 14 14 14 14 14 14 14 14 14 14 13 13 13 13 13 13 13 13 13 13
16 16 16 16 16 16 15 15 15 15 15 15 15 15 15 15 15 15 15 15 14 14 14 14 14 14 14 14 14 14 13 13 13 13 13 13 13 13 13 13 13 12 12
15 15 15 15 15 15 15 15 15 15 15 15 15 15 15 15 15 15 14 14 14 14 14 14 13 13 13 13 13 13 13 13 13 13 13 13 12 12 12 12 12 12 12
14 14 15 15 15 15 15 15 15 15 15 15 15 15 14 14 14 14 14 14 14 14 13 13 13 13 12 12 12 12 12 12 12 12 12 12 12 12 12 12 11 11 11
14 14 14 14 15 15 15 15 15 15 15 15 15 14 14 14 14 14 14 13 13 13 13 12 12 12 12 12 12 12 12 11 11 11 11 11 11 11 11 11 11 11 11
13 13 14 14 14 14 14 14 14 14 14 14 14 14 14 14 13 13 13 13 12 12 12 12 12 12 12 11 11 11 11 11 11 11 11 10 10 10 10 10 10 10 10
13 13 13 13 13 14 14 14 14 14 14 14 14 13 13 13 13 13 12 12 12 12 11 11 11 11 11 11 11 10 10 10 10 10 10 10 10 10 10 10 10 10 10
13 13 13 13 13 13 13 13 13 13 13 13 13 13 13 12 12 12 12 12 11 11 11 11 11 11 11 10 10 10 10 10 10 10 10 9 9 9 9 9 9 9 9
12 12 13 12 12 13 13 13 13 13 13 13 13 12 12 12 12 12 11 11 11 11 11 11 11 10 10 10 10 10 9 9 9 9 9 9 9 9 9 9 9 9 8
12 12 12 12 12 12 12 12 12 12 12 12 12 12 12 12 11 11 11 11 11 11 11 10 10 10 10 10 10 9 9 9 9 9 9 8 8 8 8 8 8 8 8
11 12 12 12 12 12 12 12 12 12 12 12 12 12 11 11 11 11 11 11 10 10 10 10 10 10 10 9 9 9 9 9 9 9 8 8 8 8 8 8 8 7 7
11 11 11 11 12 12 11 11 11 11 11 11 11 11 11 11 11 10 10 10 10 10 10 10 10 10 9 9 9 9 9 8 8 8 8 8 8 8 7 7 7 7 7
11 11 11 11 11 11 11 11 11 11 11 11 11 11 10 10 10 10 10 10 10 10 9 9 9 9 9 9 9 8 8 8 8 8 8 8 8 7 7 7 7 7 7
11 11 11 11 11 11 11 11 11 11 11 11 10 10 10 10 9 9 9 9 9 9 9 9 9 9 9 9 8 8 8 8 8 8 8 7 7 7 7 7 6 6 6
Wind_Speed
9 8 7 7 7 7 6 6 6 5 4 4 4 5 5 5 5 4 5 5 5 5 5 5 4 4 3 3 3 3 3 2 3 3 2 1 1 1 3 5 6 8 9
8 7 7 6 7 7 7 7 6 6 6 6 6 5 6 6 5 6 7 6 5 5 5 5 4 4 4 4 3 4 3 3 3 3 2 2 2 2 2 3 4 6 6
8 7 6 6 6 7 7 6 7 7 7 7 7 7 7 6 6 6 7 6 6 5 5 5 4 4 4 3 3 4 3 4 3 3 3 3 2 2 1 2 3 1 4
7 7 6 6 6 6 6 6 7 7 7 8 8 7 7 7 6 6 6 6 6 5 5 5 4 4 4 4 4 4 4 3 3 3 3 2 2 1 1 1 2 2 2
4 6 6 5 5 5 5 6 6 7 8 7 7 7 7 7 7 7 6 7 6 5 5 4 4 4 4 3 3 2 2 2 3 3 3 2 2 1 1 2 2 2 1
2 3 4 4 4 4 4 4 5 5 6 6 7 7 7 8 7 9 7 6 5 5 4 4 4 4 4 4 4 3 2 3 3 3 3 2 2 1 2 3 2 2 2
2 2 2 3 3 3 4 3 3 4 4 5 6 6 7 7 8 7 8 6 6 5 5 4 5 4 3 3 3 4 4 5 4 4 4 3 2 2 2 2 2 3 4
2 2 2 3 3 3 3 3 3 3 3 4 5 5 5 7 9 8 7 7 6 6 6 6 5 4 4 2 2 2 3 2 4 4 3 3 3 2 2 3 4 3 3
2 2 2 2 2 2 3 4 4 3 3 4 5 6 6 6 8 8 7 6 6 6 7 6 5 4 4 3 3 3 3 2 2 2 2 3 3 3 2 2 3 2 3
2 2 2 1 2 3 4 3 3 3 4 4 4 5 6 5 7 8 8 6 6 5 5 5 5 5 6 5 4 4 4 3 2 2 3 4 4 5 6 4 3 3 2
2 2 2 2 3 5 4 3 3 4 4 4 4 5 5 5 6 8 8 5 5 5 4 4 4 6 6 6 5 4 5 4 4 4 5 5 5 4 4 4 3 2 3
3 3 3 3 5 5 3 3 4 4 5 5 5 5 4 4 5 7 9 8 6 5 4 3 2 5 5 5 5 5 5 4 4 5 4 4 3 3 2 2 3 4 4
4 4 4 5 5 4 4 5 5 5 5 5 4 5 3 2 3 5 7 7 7 4 3 2 3 5 4 4 6 7 5 5 5 5 4 3 3 3 2 2 3 4 5
5 4 4 5 6 5 5 5 5 5 5 4 4 3 2 1 2 2 3 3 4 3 3 2 4 5 5 4 4 4 5 5 4 4 3 3 2 2 2 2 2 2 3
5 5 6 6 6 5 5 5 5 4 4 4 4 3 3 3 2 3 2 2 2 3 2 1 2 2 3 3 3 3 2 1 2 2 2 2 2 2 2 2 2 3 3
6 6 7 7 5 5 5 4 4 5 5 6 5 4 2 2 4 4 3 4 5 6 4 3 4 4 4 3 3 2 2 2 2 1 1 1 2 2 2 2 2 2 3
7 7 7 7 6 6 5 4 4 3 3 3 4 4 4 3 3 4 4 3 4 6 4 4 4 4 3 3 2 2 2 2 1 1 2 2 2 2 2 2 2 2 2
7 8 8 7 6 6 5 5 4 4 4 3 3 4 5 6 5 4 3 2 1 3 3 3 3 2 2 1 1 1 1 1 1 1 1 1 2 2 2 2 2 2 2
8 7 6 6 6 6 5 5 4 5 4 3 2 2 5 5 5 4 4 3 3 3 3 2 2 2 1 1 1 2 2 2 1 1 1 2 2 2 2 2 2 2 3
6 7 7 6 7 6 5 5 5 4 4 3 2 2 3 3 3 3 4 4 4 4 4 3 2 2 2 2 2 2 2 2 2 2 2 2 2 2 2 3 2 3 3
7 6 6 5 5 6 5 5 5 4 4 3 2 3 6 4 3 3 3 4 4 4 3 3 2 3 2 2 2 2 2 2 1 2 2 1 1 2 2 2 3 3 3
6 4 4 5 5 5 5 5 4 4 4 3 1 2 6 4 3 3 3 3 3 3 3 3 3 2 2 2 2 2 2 1 2 2 2 2 2 2 3 3 3 3 3
6 6 5 5 4 4 5 5 4 4 4 3 2 2 3 3 2 3 3 3 3 3 3 2 2 2 1 2 1 1 2 2 2 2 1 2 3 3 3 3 3 4 4
6 5 5 5 4 4 5 5 4 4 3 3 2 1 2 3 3 3 3 3 2 3 2 2 2 2 2 1 1 1 1 1 2 2 2 3 4 4 3 3 4 5 4
5 4 4 4 4 4 4 4 4 3 3 2 2 1 1 2 3 3 3 2 2 2 1 1 2 2 3 2 1 1 2 1 1 2 3 4 5 4 4 5 4 5 5
4 4 4 4 4 4 3 4 4 3 3 3 2 2 2 2 2 2 1 1 2 2 1 1 1 1 1 2 2 2 2 2 1 2 3 4 4 4 4 5 6 5 5
Wind_Direction
193 198 202 196 203 208 218 223 224 228 227 223 216 217 214 217 221 229 247 247 239 247 256 252 250 256 274 290 291 293 283 276 275 290 299 309 305 240 186 205 210 195 195
190 194 201 200 203 210 215 219 221 223 224 224 220 222 225 220 216 225 240 247 237 239 248 260 266 265 255 271 286 286 288 276 252 265 282 286 264 230 208 229 228 208 183
188 192 198 206 212 218 220 215 219 221 224 226 220 222 227 226 219 222 230 241 243 241 241 244 250 263 267 265 267 273 280 283 272 259 261 259 264 242 225 255 261 226 203
182 190 194 205 217 225 229 223 223 224 225 230 228 225 224 221 225 228 228 231 241 244 244 243 241 242 246 251 254 253 264 281 277 273 261 259 256 254 219 249 263 252 240
177 190 198 203 213 223 229 238 232 226 231 230 231 231 228 224 228 224 226 228 231 240 245 244 241 231 229 235 257 259 269 272 276 273 272 274 273 283 275 274 266 259 256
196 196 189 196 205 222 232 242 246 238 237 232 229 229 230 235 226 213 213 234 233 232 237 237 238 218 206 202 218 235 240 254 272 276 278 272 278 294 297 287 293 291 272
172 183 191 205 212 222 232 233 241 248 245 240 235 229 227 226 227 220 216 224 231 228 227 225 245 234 203 211 214 215 231 246 246 256 267 270 271 270 283 290 288 281 271
188 198 199 212 230 238 237 249 246 246 252 248 244 237 232 228 218 219 218 226 233 229 224 220 220 220 233 215 234 239 234 251 256 243 255 267 266 282 268 265 264 264 266
218 224 228 216 221 232 236 251 251 241 245 251 245 242 236 223 212 209 207 230 231 230 227 226 217 198 185 196 226 247 249 251 288 263 241 233 233 252 264 277 269 266 277
242 235 232 218 224 234 238 246 251 254 250 258 259 247 241 228 204 203 205 233 236 233 227 220 219 201 187 195 217 241 246 253 254 270 264 247 235 235 234 230 244 259 273
280 265 252 247 248 241 236 237 245 247 255 257 261 252 242 230 202 201 203 225 240 238 234 227 213 176 184 200 217 234 236 245 254 245 243 235 231 226 216 203 209 237 253
294 280 270 260 262 261 247 244 246 247 250 249 250 251 238 217 202 203 205 223 242 244 245 229 193 183 194 212 224 225 230 246 250 247 242 238 233 229 217 208 209 212 220
288 284 280 272 261 261 255 248 247 246 249 251 246 248 245 219 196 195 206 221 234 237 254 223 197 202 214 230 226 225 225 235 239 243 244 239 232 222 220 222 223 227 232
283 283 272 264 261 253 244 247 244 243 244 251 257 260 261 232 185 189 211 215 219 232 242 224 211 219 233 232 226 226 228 238 244 246 248 248 239 234 238 238 242 239 256
283 278 274 268 262 255 247 247 248 256 251 243 255 257 251 245 194 161 189 209 202 204 195 200 212 217 223 218 217 222 226 241 265 284 288 283 269 263 268 261 249 251 251
282 279 279 276 270 265 252 246 230 231 226 220 230 240 240 182 160 161 180 201 194 180 176 210 218 219 216 210 210 219 235 237 237 241 268 285 289 285 290 297 288 277 277
284 283 283 285 284 277 265 249 248 234 216 214 224 216 202 186 172 174 185 191 193 178 200 225 226 218 216 212 207 205 225 232 231 243 251 257 263 271 275 281 282 281 287
279 281 280 279 280 284 284 274 264 265 248 234 212 196 191 182 183 181 167 149 198 200 222 230 233 220 207 203 206 222 229 217 210 239 271 280 281 280 279 283 292 299 299
281 281 284 289 288 287 287 289 282 272 266 244 172 164 183 181 177 185 174 200 212 221 229 230 222 210 202 193 202 214 213 204 213 243 242 262 270 278 290 293 298 299 292
281 276 277 284 287 288 287 282 278 269 265 256 209 182 165 178 196 195 195 214 219 218 221 220 210 202 194 195 201 205 210 205 207 232 240 239 261 273 282 291 294 298 294
287 280 270 281 285 286 283 279 277 265 262 261 239 177 174 198 208 197 201 213 221 222 216 218 213 195 191 188 193 205 218 222 227 254 269 261 263 271 276 280 288 288 296
288 283 282 285 290 294 291 284 283 279 272 263 229 181 177 197 214 199 202 211 231 237 218 209 223 210 189 192 204 216 225 228 240 255 269 276 279 275 271 268 273 278 277
285 284 281 279 278 282 282 283 284 281 274 262 239 205 183 207 215 197 205 222 222 232 227 213 209 204 173 165 174 191 215 239 251 248 252 262 269 271 275 277 275 277 273
286 285 280 277 274 273 279 282 280 280 284 276 253 219 191 194 210 215 217 213 210 229 219 200 197 188 178 165 71 19 337 312 293 266 247 255 261 261 262 263 265 271 272
284 284 285 288 288 288 288 288 284 278 269 260 258 254 225 220 229 225 220 203 182 199 218 204 192 185 173 163 148 94 56 55 321 306 276 257 251 252 257 261 264 271 268
294 294 295 296 295 291 286 283 278 270 265 260 245 221 222 235 246 256 245 223 203 201 212 200 197 186 164 150 142 125 103 133 239 292 283 258 251 248 253 258 264 267 272
Height
1522 1524 1525 1527 1528 1530 1531 1532 1534 1536 1537 1538 1539 1540 1541 1541 1542 1542 1543 1543 1544 1544 1544 1544 1544 1544 1543 1543 1543 1543 1543 1543 1542 1541 1541 1541 1541 1540 1539 1539 1539 1538 1537
1519 1521 1522 1524 1525 1526 1527 1529 1531 1532 1533 1534 1535 1536 1537 1537 1538 1539 1539 1540 1540 1540 1540 1540 1540 1541 1540 1540 1540 1540 1540 1540 1540 1538 1538 1538 1538 1537 1536 1536 1536 1535 1534
1516 1517 1519 1521 1522 1523 1524 1525 1527 1528 1529 1530 1531 1532 1533 1533 1534 1534 1535 1536 1536 1537 1537 1537 1537 1537 1537 1537 1537 1536 1536 1536 1536 1536 1535 1535 1535 1534 1534 1533 1533 1532 1531
1512 1514 1516 1517 1518 1519 1521 1522 1523 1524 1525 1526 1527 1527 1528 1529 1529 1530 1531 1532 1532 1532 1533 1533 1533 1533 1533 1533 1533 1533 1533 1532 1532 1532 1532 1531 1531 1531 1531 1530 1529 1529 1529
1510 1511 1512 1514 1515 1516 1517 1518 1518 1519 1520 1521 1522 1523 1524 1524 1525 1526 1527 1527 1528 1528 1529 1529 1529 1529 1529 1530 1530 1529 1529 1529 1529 1528 1528 1528 1528 1527 1527 1527 1526 1526 1526
1508 1509 1510 1511 1511 1512 1513 1514 1514 1515 1516 1516 1517 1518 1519 1519 1520 1521 1522 1523 1524 1524 1524 1525 1525 1525 1525 1525 1526 1526 1525 1525 1525 1525 1525 1525 1524 1524 1524 1524 1523 1523 1522
1507 1507 1508 1508 1508 1508 1509 1510 1510 1510 1511 1511 1512 1512 1513 1514 1515 1516 1517 1518 1519 1520 1520 1520 1521 1522 1522 1521 1521 1521 1521 1522 1522 1522 1522 1521 1521 1521 1520 1520 1520 1520 1519
1504 1505 1505 1505 1505 1505 1506 1506 1506 1506 1506 1506 1506 1507 1508 1510 1511 1512 1512 1513 1514 1515 1515 1516 1517 1517 1518 1518 1517 1517 1517 1517 1518 1518 1518 1517 1517 1517 1517 1517 1516 1516 1515
1501 1502 1502 1502 1502 1502 1502 1502 1502 1502 1502 1502 1503 1503 1504 1505 1506 1507 1508 1508 1509 1509 1511 1512 1512 1512 1513 1513 1514 1513 1513 1513 1514 1514 1514 1513 1513 1513 1513 1513 1513 1512 1512
1499 1499 1499 1499 1499 1498 1498 1498 1498 1498 1498 1498 1499 1499 1499 1500 1501 1501 1502 1503 1504 1504 1505 1506 1507 1508 1508 1509 1509 1509 1509 1509 1509 1509 1509 1509 1509 1509 1509 1509 1509 1509 1508
1496 1496 1495 1495 1495 1495 1495 1494 1494 1494 1494 1494 1494 1494 1494 1495 1496 1496 1497 1498 1498 1499 1500 1501 1502 1503 1503 1504 1505 1505 1505 1505 1505 1505 1505 1505 1505 1505 1505 1505 1505 1505 1504
1493 1493 1492 1492 1492 1492 1491 1491 1491 1491 1490 1490 1490 1490 1490 1491 1491 1491 1492 1493 1493 1494 1495 1496 1497 1498 1498 1499 1499 1500 1500 1501 1501 1501 1501 1501 1501 1501 1501 1501 1501 1501 1501
1490 1489 1489 1488 1488 1488 1488 1488 1488 1488 1487 1487 1487 1487 1486 1486 1486 1487 1487 1487 1488 1489 1490 1491 1492 1493 1494 1494 1495 1495 1496 1496 1496 1497 1497 1497 1498 1498 1497 1497 1496 1496 1496
1487 1486 1485 1485 1484 1484 1484 1484 1484 1484 1483 1483 1483 1482 1482 1482 1481 1481 1482 1482 1483 1485 1485 1486 1487 1488 1489 1489 1490 1490 1491 1492 1493 1493 1493 1494 1494 1494 1493 1493 1492 1492 1492
1483 1483 1482 1481 1480 1480 1479 1479 1479 1478 1479 1479 1478 1478 1478 1478 1477 1477 1477 1478 1479 1480 1481 1481 1482 1483 1483 1484 1485 1486 1486 1488 1489 1489 1489 1489 1490 1489 1489 1489 1489 1488 1488
1480 1479 1478 1477 1476 1475 1475 1474 1473 1474 1474 1474 1474 1474 1474 1474 1473 1473 1473 1474 1475 1476 1476 1476 1477 1478 1479 1479 1480 1481 1482 1483 1483 1484 1485 1486 1485 1485 1485 1485 1485 1485 1485
1476 1475 1474 1473 1473 1471 1471 1470 1469 1468 1468 1467 1468 1469 1469 1469 1469 1469 1470 1470 1471 1471 1472 1472 1473 1474 1475 1476 1477 1477 1478 1479 1480 1480 1481 1481 1482 1482 1482 1481 1481 1481 1481
1472 1471 1469 1468 1468 1467 1467 1466 1465 1464 1464 1463 1463 1463 1464 1464 1464 1465 1466 1467 1467 1468 1468 1469 1470 1470 1471 1472 1473 1474 1475 1475 1476 1477 1477 1478 1478 1478 1478 1478 1478 1478 1477
1467 1466 1465 1464 1464 1463 1463 1462 1461 1460 1459 1459 1458 1458 1459 1460 1460 1461 1462 1463 1463 1464 1465 1466 1467 1468 1468 1469 1470 1471 1472 1472 1473 1474 1474 1475 1475 1475 1475 1475 1475 1475 1474
1462 1461 1461 1460 1460 1459 1459 1458 1457 1456 1455 1455 1454 1454 1455 1455 1456 1457 1458 1459 1460 1461 1462 1463 1464 1465 1465 1466 1467 1468 1469 1469 1470 1470 1471 1471 1472 1472 1472 1471 1471 1471 1471
1458 1457 1456 1456 1456 1455 1455 1454 1453 1453 1452 1451 1451 1450 1451 1451 1452 1453 1454 1455 1456 1458 1459 1460 1461 1462 1462 1463 1464 1465 1466 1466 1467 1467 1468 1468 1468 1468 1468 1468 1468 1468 1467
1454 1453 1452 1452 1451 1451 1450 1450 1449 1449 1448 1448 1447 1447 1447 1448 1449 1450 1451 1452 1453 1454 1455 1456 1457 1459 1459 1460 1461 1462 1462 1463 1463 1464 1464 1464 1464 1464 1464 1464 1464 1464 1463
1450 1449 1449 1448 1447 1447 1447 1446 1445 1445 1445 1444 1444 1444 1444 1445 1446 1446 1447 1448 1449 1450 1451 1452 1454 1455 1456 1457 1458 1458 1459 1459 1460 1460 1460 1460 1460 1460 1460 1460 1460 1460 1460
1447 1446 1445 1445 1444 1443 1444 1443 1442 1442 1440 1440 1440 1440 1441 1442 1443 1444 1444 1445 1445 1447 1448 1449 1450 1451 1452 1453 1454 1455 1455 1456 1456 1456 1455 1455 1455 1456 1456 1456 1456 1456 1456
1444 1443 1442 1442 1441 1440 1440 1439 1439 1438 1438 1438 1437 1438 1439 1440 1441 1441 1442 1442 1443 1444 1445 1445 1446 1447 1448 1448 1449 1450 1450 1450 1451 1451 1451 1451 1451 1451 1451 1451 1451 1451 1451
1441 1440 1439 1439 1438 1437 1437 1436 1436 1436 1436 1436 1436 1436 1437 1437 1438 1439 1439 1440 1440 1441 1441 1442 1442 1443 1444 1444 1445 1445 1445 1445 1445 1445 1446 1446 1446 1446 1446 1446 1447 1447 1447